This is the latest recevied weather packets stored in our database for station/object IR3AS. If no packets are shown the sender has not sent any weather packets the latest 10 day(s).
| Time | Temp. | Humidity | Pressure | Rain* | Wind** | Luminosity | Snow |
|---|---|---|---|---|---|---|---|
| 1777914653 | 7.78° C | 68% | 858.8 hPa | 0 mm | - | - | - |
| 1777914353 | 7.78° C | 67% | 858.9 hPa | 0 mm | - | - | - |
| 1777914053 | 8.33° C | 67% | 859.4 hPa | 0 mm | - | - | - |
| 1777913753 | 8.33° C | 67% | 859.4 hPa | 0 mm | - | - | - |
| 1777913453 | 8.89° C | 65% | 859.6 hPa | 0 mm | - | - | - |
| 1777913153 | 8.89° C | 65% | 859.7 hPa | 0 mm | - | - | - |
| 1777912853 | 8.89° C | 66% | 859.8 hPa | 0 mm | - | - | - |
| 1777912553 | 8.33° C | 66% | 859.6 hPa | 0 mm | - | - | - |
| 1777912253 | 7.78° C | 66% | 860 hPa | 0 mm | - | - | - |
| 1777911953 | 7.78° C | 65% | 859.8 hPa | 0 mm | - | - | - |
| 1777911683 | 7.78° C | 63% | 859.8 hPa | 0 mm | - | - | - |
| 1777911653 | 7.78° C | 63% | 859.8 hPa | 0 mm | - | - | - |
| 1777911353 | 8.33° C | 62% | 860 hPa | 0 mm | - | - | - |
| 1777911053 | 8.89° C | 60% | 860 hPa | 0 mm | - | - | - |
| 1777910753 | 9.44° C | 59% | 859.9 hPa | 0 mm | - | - | - |
| 1777910453 | 10.56° C | 58% | 860.2 hPa | 0 mm | - | - | - |
| 1777910153 | 11.11° C | 57% | 859.9 hPa | 0 mm | - | - | - |
| 1777909853 | 11.67° C | 59% | 860.1 hPa | 0 mm | - | - | - |
| 1777909553 | 11.11° C | 59% | 860 hPa | 0 mm | - | - | - |
| 1777909253 | 11.11° C | 59% | 860.1 hPa | 0 mm | - | - | - |
| 1777908953 | 10.56° C | 57% | 860.3 hPa | 0 mm | - | - | - |
| 1777908653 | 11.11° C | 57% | 860.3 hPa | 0 mm | - | - | - |
| 1777908353 | 11.67° C | 56% | 860.2 hPa | 0 mm | - | - | - |
| 1777908053 | 12.22° C | 56% | 860.2 hPa | 0 mm | - | - | - |
| 1777907753 | 12.22° C | 57% | 860.1 hPa | 0 mm | - | - | - |
* Rain latest hour (hover to see other rain measurements)
** Current wind speed in m/s (hover to see current wind gust speed)